SL-19 DEB, 23488

Orbit data source: Space-Track

SL-19 DEB, 23488 is space debris in LEO originally from a launch on Mon, 26 Dec 1994 UTC launched from the Tyuratam Missile And Space Complex (TTMTR). Debris objects in space refer to the collection of defunct objects orbiting the Earth. Examples of debris include non-operational satellites, rocket bodies, and fragments generated from explosions, collisions, or faulty payload assembly.

Loading next visibility...
Identifier
23488, 1994-085L
Orbit
LEO
Country
Flag of CISCIS
Related business
Manufacturer
Unknown
Mission
Spacecraft
Bus & Motor
Unknown
Mass
Unknown
Launch date (UTC)
1994-12-26 (31 years ago)
Launch vehicle
Unknown
Launch site
Tyuratam Missile And Space Complex (TTMTR)
Object type
Payload
Rocket body
Debris
Shape & HBR
Unknown shape, 0.4 m
Radar Cross Section
Medium (>0.1 m² and <1 m²)

Expand to show TLE details & history
Last TLE update: 9 hours ago

TLE from 9 hours ago
0 SL-19 DEB
1 23488U 94085L   26062.44060147  .00000055  00000-0  26223-2 0  9990
2 23488  64.9984 248.8558 0215850 131.6641 247.9673 11.29674123282983
Epoch: 2026-03-03T10:34Z
TLE epoch observation values (Epoch: 2026-03-03T10:34:27.967Z)
Latitude
15.68745°
Longitude
-63.48922°
Altitude
2,084.247 km
Speed
6.836 km/s
True Right ascension
17h 05m 23s
True Declination
15° 36' 44"
Sunlit
Object was in daylight at epoch
Visualization orbit readout
Latitude
Unknown
Longitude
Unknown
Altitude
Unknown
Speed
Unknown
Apparent Right ascension
Unknown
Apparent Declination
Unknown
Sunlit
N/A
Visualization observer readout
Local Sidereal Time
23:29:57
Azimuth
Unknown
Elevation
Unknown
Doppler factor
Unknown
Orbital elements
Apogee altitude
2,191.809 km
Perigee altitude
1,829.661 km
Semi-major axis
8,388.872 km
Eccentricity
0.02159
Inclination
64.9984°
RAAN
248.8558°
Arg. of periapsis
131.6641°
True anomaly
245.69805°
Mean anomaly
247.9673°
Eccentric anomaly
246.83032°
Mean motion
2.8248 °/min
Orbital period
127.44 mins
BSTAR
0.0026223
Loading maneuver chart data...
Computing Atmospheric mass density...
Loading historical data...
Loading historical data...
Loading historical data...
Loading historical data...
Loading historical data...
Loading historical data...
Loading historical data...

Documentation

Showing up to 5 results
|